Showing default

IRIDIUM 114, 41923

Orbit data source: Space-Track

IRIDIUM 114, 41923 is a payload satellite owned by Iridium (US) in LEO that was launched on Sat, 14 Jan 2017 UTC via an FALCON 9 launch vehicle from the Air Force Western Test Range (AFWTR). Payload-class satellites include a variety of spacecraft equipped with specific instruments for various scientific and technological missions. These include communications satellites like Starlink; space stations such as the ISS; scientific satellites like the Hubble; Earth observation satellites from companies like Planet Labs, Umbra, and HawkEye 360; GPS; miniature CubeSats for education and research; and military/defense satellites.

Loading next visibility...
Identifier
41923, 2017-003G
Orbit
LEO
Country
Flag of USUS
Related business
Manufacturer
OATK SSG Gilbert
Mission
Operational Commercial Communications
Bus & Motor
ELITEBUS, Unknown motor
Mass
860 kg wet, 700 kg dry
Launch date (UTC)
2017-01-14 (9 years ago)
Launch vehicle
FALCON 9
Launch site
Air Force Western Test Range (AFWTR)
Object type
Payload
Rocket body
Debris
Shape & HBR
Trap Box + 2 Pan, 4.8 m
Radar Cross Section
10.154 m², Large (>1 m²)

Expand to show TLE details & history
Last TLE update: 4 hours ago

TLE from 4 hours ago
0 IRIDIUM 114
1 41923U 17003G   25308.63113743  .00000157  00000-0  48876-4 0  9996
2 41923  86.4019 182.2684 0002195  80.4214 279.7230 14.34218030461069
Epoch: 2025-11-04T15:08Z
TLE epoch observation values (Epoch: 2025-11-04T15:08:50.273Z)
Latitude
-0.00003°
Longitude
-89.05646°
Altitude
780.452 km
Speed
7.464 km/s
True Right ascension
12h 09m 04s
True Declination
0° 00' 00"
Sunlit
Object was in daylight at epoch
Visualization orbit readout
Latitude
Unknown
Longitude
Unknown
Altitude
Unknown
Speed
Unknown
Apparent Right ascension
Unknown
Apparent Declination
Unknown
Sunlit
N/A
Visualization observer readout
Local Sidereal Time
15:26:48
Azimuth
Unknown
Elevation
Unknown
Doppler factor
Unknown
Orbital elements
Apogee altitude
776.201 km
Perigee altitude
773.061 km
Semi-major axis
7,152.768 km
Eccentricity
0.00022
Inclination
86.4019°
RAAN
182.2684°
Arg. of periapsis
80.4214°
True anomaly
279.69821°
Mean anomaly
279.723°
Eccentric anomaly
279.7106°
Mean motion
3.58783 °/min
Orbital period
100.34 mins
BSTAR
0.000048876
Loading maneuver chart data...
Computing Atmospheric mass density...
Loading historical data...
Loading historical data...
Loading historical data...
Loading historical data...
Loading historical data...
Loading historical data...
Loading historical data...

Documentation

Showing up to 5 results
|